Regional Weather Roundup
Issued by NWS

Home | Current Version | Previous Version | Text Only | Print | Product List | Glossary On
Versions: 1 2 3 4 5 6 7 8 9 10 11 12 13 14 15 16 17 18 19 20 21 22 23 24 25 26 27 28 29 30 31 32 33 34 35 36 37 38 39 40 41 42 43 44 45 46 47 48 49 50
000
ASUS43 KDTX 300601
RWRMI
MICHIGAN HOURLY REGIONAL WEATHER ROUNDUP
NATIONAL WEATHER SERVICE DETROIT/PONTIAC MI
200 AM EDT SAT MAY 30 2015

NOTE: "FAIR" INDICATES FEW OR NO CLOUDS BELOW 12,000 FEET WITH NO
SIGNIFICANT WEATHER AND/OR OBSTRUCTION TO VISIBILITY.

MIZ047>049-052>055-059>063-066>070-074>076-081>083-300700-
SOUTHEAST LOWER MICHIGAN

CITY           SKY/WX    TMP DP  RH WIND       PRES   REMARKS
ADRIAN         CLEAR     71  63  75 SW10      29.99F
6HR MIN TEMP:  71; 6HR MAX TEMP:  81;

ALMA           PTCLDY    68  67  95 S8        29.93S
ANN ARBOR      PTCLDY    71  64  78 S7        29.97F
BAD AXE        RAIN      70  65  84 SW16G24   29.93R
CARO           HVY RAIN  67  66  95 SW10G21   29.94S
DETROIT CITY   PTCLDY    73  64  73 SW12      29.97S
6HR MIN TEMP:  70; 6HR MAX TEMP:  77;

DETROIT        MOCLDY    74  64  71 S9        29.98F
6HR MIN TEMP:  72; 6HR MAX TEMP:  77;

FLINT          MOCLDY    75  65  70 W9        29.95R
6HR MIN TEMP:  68; 6HR MAX TEMP:  82; 6HR PCP:  0.06;

GROSSE ILE     PTCLDY    68  64  88 S9        29.97F
HILLSDALE      PTCLDY    72  66  80 S5        29.99F
6HR MIN TEMP:  72; 6HR MAX TEMP:  81;

HOWELL         MOCLDY    73  64  73 SW5       29.96S
6HR MIN TEMP:  73; 6HR MAX TEMP:  79;


CITY           SKY/WX    TMP DP  RH WIND       PRES   REMARKS
JACKSON        PTCLDY    74  63  68 SW9       29.97S
6HR MIN TEMP:  74; 6HR MAX TEMP:  80;

LAMBERTVILLE   CLEAR     73  63  68 SW8       30.00S
LANSING        CLOUDY    69  66  90 SW9       29.95F
6HR MIN TEMP:  69; 6HR MAX TEMP:  74; 6HR PCP:  0.26;

LAPEER         FAIR      73  63  70 SW10G18   29.95S
MASON          MOCLDY    70  64  81 CALM      29.96F
MONROE         CLEAR     73  64  73 SW6       29.97S
MT. CLEMENS    PTCLDY    64  64 100 S7        29.94F
PONTIAC        MOCLDY    74  64  71 SW10      29.96S
6HR MIN TEMP:  72; 6HR MAX TEMP:  79;

PORT HOPE        N/A     70  66  87 VRB7      29.89R
6HR MIN TEMP:  65; 6HR MAX TEMP:  77; 6HR PCP:  0.02;

PORT HURON     PTCLDY    66  63  88 S5        29.96S
TRI CITIES     MOCLDY    71  66  84 S13       29.91F
6HR MIN TEMP:  70; 6HR MAX TEMP:  73; 6HR PCP:  0.65;

MIDLAND        FAIR      68  66  93 S7        29.90S
TROY           PTCLDY    74  66  76 SW8       29.98F
SAGINAW HB     LGT RAIN  68  68 100 S15G22    29.92F
$$
MIZ043>046-050>051-056>058-064>065-071>073-077>080-300700-
SOUTHWEST LOWER MICHIGAN

CITY           SKY/WX    TMP DP  RH WIND       PRES   REMARKS
BATTLE CREEK   CLOUDY    70  67  90 SW6       29.97S
6HR MIN TEMP:  70; 6HR MAX TEMP:  76; 6HR PCP:  0.23;

BENTON HARBOR  CLOUDY    69  65  86 SW7       29.94F
6HR MIN TEMP:  67; 6HR MAX TEMP:  75; 6HR PCP:  0.27;

BIG RAPIDS     CLOUDY    68  64  88 SW5       29.90F
6HR MIN TEMP:  68; 6HR MAX TEMP:  69;

COLDWATER      PTCLDY    72  63  72 SW6       29.97F
6HR MIN TEMP:  72; 6HR MAX TEMP:  80;

FREMONT        CLOUDY    67  64  91 S6        29.91S
HOLLAND        CLOUDY    72  64  76 SW10      29.93F
6HR MIN TEMP:  70; 6HR MAX TEMP:  77; 6HR PCP:  0.04;

GRAND RAPIDS   CLOUDY    69  66  90 S9        29.93F
6HR MIN TEMP:  69; 6HR MAX TEMP:  74; 6HR PCP:  0.11;

IONIA          MOCLDY    69  67  92 SW8       29.93S
KALAMAZOO      CLOUDY    70  66  87 S8        29.96S
6HR MIN TEMP:  69; 6HR MAX TEMP:  78; 6HR PCP:  0.25;

LUDINGTON      FOG       56  54  92 W6        29.90S VSB 1/4
6HR MIN TEMP:  56; 6HR MAX TEMP:  71; 6HR PCP:  0.13;

MARSHALL       MOCLDY    72  65  80 CALM      29.96F
MOUNT PLEASANT PTCLDY    68  66  92 S7        29.91R
6HR MIN TEMP:  68; 6HR MAX TEMP:  72; 6HR PCP:  0.18;

MUSKEGON       CLOUDY    65  60  84 SW10      29.92S
6HR MIN TEMP:  63; 6HR MAX TEMP:  76;

SOUTH HAVEN    CLOUDY    69  65  86 SW6       29.94S
$$
MIZ016>042-300700-
NORTHERN LOWER MICHIGAN

CITY           SKY/WX    TMP DP  RH WIND       PRES   REMARKS
ALPENA         CLOUDY    66  64  93 S5        29.84F
6HR MIN TEMP:  62; 6HR MAX TEMP:  66; 6HR PCP:  0.11;

BEAVER ISLAND  DRIZZLE   55  54  97 NW6       29.87S
6HR MIN TEMP:  51; 6HR MAX TEMP:  65;

BELLAIRE       CLOUDY    60  58  93 NW7       29.88R
6HR MIN TEMP:  60; 6HR MAX TEMP:  73;

CADILLAC       CLOUDY    67  66  94 SW7       29.89S
CHARLEVOIX     CLOUDY    57  57 100 W3        29.90S FOG
6HR MIN TEMP:  54; 6HR MAX TEMP:  69;

FRANKFORT      HAZE      58  53  83 W3        29.89R VSB 1
GAYLORD        LGT RAIN  67  67 100 W10       29.87S
6HR MIN TEMP:  66; 6HR MAX TEMP:  70; 6HR PCP:  0.32;

GRAYLING       CLOUDY    67  65  94 SW6       29.87F
HARBOR SPRINGS DRZL/FOG  52  52  99 CALM      29.87S VSB 1/4
HOUGHTON LAKE  MOCLDY    67  65  93 S12       29.88F
6HR MIN TEMP:  66; 6HR MAX TEMP:  68; 6HR PCP:  0.04;

MANISTEE       CLOUDY    57  55  94 W6        29.90S
OSCODA         CLOUDY    67  67  98 S7        29.87F
PELLSTON       LGT RAIN  61  59  93 NW7       29.86S
6HR MIN TEMP:  61; 6HR MAX TEMP:  75; 6HR PCP:  0.95;

ROGERS CITY    LGT RAIN  63  62  97 NW6       29.85S
TRAVERSE CITY  FOG       60  57  89 E6        29.85R VSB 1
6HR MIN TEMP:  60; 6HR MAX TEMP:  78; 6HR PCP:  0.14;

$$
MIZ007>008-015-300700-
EASTERN UPPER MICHIGAN

CITY           SKY/WX    TMP DP  RH WIND       PRES   REMARKS
KINROSS        CLOUDY    59  59 100 NW9       29.85F
6HR MIN TEMP:  59; 6HR MAX TEMP:  70;

MACKINAC ISLAN FOG       55  55 100 W7        29.85S VSB 1
6HR MIN TEMP:  55; 6HR MAX TEMP:  70; 6HR PCP:  0.44;

NEWBERRY       CLOUDY    51  51  98 NW12G21   29.89R
6HR MIN TEMP:  51; 6HR MAX TEMP:  64; 6HR PCP:  0.06;

S. S. MARIE    LGT RAIN  56  55  97 NW9       29.85S FOG
6HR MIN TEMP:  56; 6HR MAX TEMP:  65; 6HR PCP:  0.06;

$$
MIZ004>006-011>014-085-300700-
CENTRAL UPPER MICHIGAN

CITY           SKY/WX    TMP DP  RH WIND       PRES   REMARKS
MANISTIQUE     LGT RAIN  51  50  95 N14G21    29.89R
6HR MIN TEMP:  51; 6HR MAX TEMP:  61; 6HR PCP:  0.23;

ESCANABA       CLOUDY    54  50  87 N7        29.92R
6HR MIN TEMP:  54; 6HR MAX TEMP:  70;

MENOMINEE      CLOUDY    61  57  88 N9G21     29.91R
6HR MIN TEMP:  61; 6HR MAX TEMP:  72; 6HR PCP:  0.41;

SAWYER-GWINN   DRIZZLE   51  48  92 N13       29.96S
6HR MIN TEMP:  51; 6HR MAX TEMP:  64; 6HR PCP:  0.19;

$$
MIZ001>003-009>011-084-300700-
WESTERN UPPER MICHIGAN

CITY           SKY/WX    TMP DP  RH WIND       PRES   REMARKS
IRON MOUNTAIN  LGT RAIN  54  52  93 NW10      29.97R
6HR MIN TEMP:  54; 6HR MAX TEMP:  65; 6HR PCP:  0.03;

HOUGHTON       CLOUDY    50  46  86 NW7       30.00R
6HR MIN TEMP:  50; 6HR MAX TEMP:  53; 6HR PCP:  0.01;

COPPER HARBOR    N/A     44  41  89 N7        29.99S
6HR MIN TEMP:  44; 6HR MAX TEMP:  51;

IRONWOOD       CLOUDY    46  46 100 CALM      30.04R
6HR MIN TEMP:  46; 6HR MAX TEMP:  55;

$$

ABBREVIATIONS USED IN REMARKS
   TC - TEMPERATURE IN CELSIUS
  WCI - WIND CHILL INDEX
   HX - HEAT INDEX
  VSB - VISIBILITY




USA.gov is the U.S. government's official web portal to all federal, state and local government web resources and services.